TimeCST,TemperatureF,Dew PointF,Humidity,Sea Level PressureIn,VisibilityMPH,Wind Direction,Wind SpeedMPH,Gust SpeedMPH,PrecipitationIn,Events,Conditions,WindDirDegrees,DateUTC
12:15 AM,29.7,22.5,75,29.96,10.0,Calm,Calm,-,N/A,,Mostly Cloudy,0,2012-12-07 06:15:00
12:35 AM,30.7,22.1,70,29.96,10.0,Calm,Calm,-,N/A,,Mostly Cloudy,0,2012-12-07 06:35:00
12:55 AM,30.6,22.3,71,29.94,10.0,SE,3.5,-,N/A,,Mostly Cloudy,140,2012-12-07 06:55:00
1:15 AM,30.6,21.2,68,29.93,10.0,South,4.6,-,N/A,,Clear,170,2012-12-07 07:15:00
1:35 AM,30.2,21.2,69,29.92,10.0,South,6.9,-,N/A,,Mostly Cloudy,190,2012-12-07 07:35:00
1:55 AM,31.1,21.0,66,29.92,10.0,South,4.6,-,N/A,,Mostly Cloudy,170,2012-12-07 07:55:00
2:15 AM,29.7,21.2,71,29.92,10.0,SSW,3.5,-,N/A,,Overcast,200,2012-12-07 08:15:00
2:35 AM,29.3,20.3,69,29.91,10.0,South,5.8,-,N/A,,Mostly Cloudy,190,2012-12-07 08:35:00
2:55 AM,29.3,21.0,71,29.91,10.0,South,5.8,-,N/A,,Scattered Clouds,180,2012-12-07 08:55:00
3:15 AM,28.9,21.2,73,29.91,10.0,SSW,4.6,-,N/A,,Mostly Cloudy,200,2012-12-07 09:15:00
3:35 AM,27.7,21.0,76,29.91,10.0,Calm,Calm,-,N/A,,Overcast,0,2012-12-07 09:35:00
3:55 AM,28.0,21.9,78,29.90,10.0,Calm,Calm,-,N/A,,Overcast,0,2012-12-07 09:55:00
4:15 AM,27.7,21.2,77,29.88,10.0,SSE,4.6,-,N/A,,Mostly Cloudy,160,2012-12-07 10:15:00
4:35 AM,26.6,21.0,79,29.87,10.0,SSE,4.6,-,N/A,,Scattered Clouds,150,2012-12-07 10:35:00
4:55 AM,28.6,22.6,78,29.87,10.0,SSE,8.1,-,N/A,,Mostly Cloudy,160,2012-12-07 10:55:00
5:15 AM,28.9,22.8,78,29.85,10.0,SSE,9.2,-,N/A,,Overcast,160,2012-12-07 11:15:00
5:35 AM,28.2,22.6,80,29.85,10.0,SSE,9.2,-,N/A,,Mostly Cloudy,150,2012-12-07 11:35:00
5:55 AM,27.7,22.8,82,29.83,10.0,SE,8.1,-,N/A,,Mostly Cloudy,140,2012-12-07 11:55:00
6:15 AM,27.5,22.6,82,29.83,10.0,SSE,4.6,-,N/A,,Overcast,150,2012-12-07 12:15:00
6:35 AM,28.4,22.8,80,29.84,10.0,South,6.9,-,N/A,,Overcast,170,2012-12-07 12:35:00
6:55 AM,28.8,22.6,78,29.83,10.0,SSE,8.1,-,N/A,,Overcast,150,2012-12-07 12:55:00
7:15 AM,29.1,22.8,77,29.83,10.0,SSE,4.6,-,N/A,,Overcast,150,2012-12-07 13:15:00
7:35 AM,30.0,22.8,75,29.82,10.0,South,5.8,-,N/A,,Scattered Clouds,180,2012-12-07 13:35:00
7:55 AM,30.7,22.5,71,29.82,10.0,South,6.9,-,N/A,,Mostly Cloudy,170,2012-12-07 13:55:00
8:15 AM,31.1,22.6,71,29.82,10.0,South,6.9,-,N/A,,Overcast,190,2012-12-07 14:15:00
8:35 AM,31.1,22.8,71,29.83,10.0,Calm,Calm,-,N/A,,Mostly Cloudy,0,2012-12-07 14:35:00
8:55 AM,31.8,22.5,68,29.85,10.0,SSW,9.2,-,N/A,,Scattered Clouds,210,2012-12-07 14:55:00
9:15 AM,32.0,21.9,66,29.85,10.0,SSW,4.6,-,N/A,,Mostly Cloudy,200,2012-12-07 15:15:00
9:35 AM,32.4,21.7,65,29.85,10.0,SSW,6.9,-,N/A,,Overcast,210,2012-12-07 15:35:00
9:55 AM,34.2,19.4,55,29.85,10.0,WSW,11.5,16.1,N/A,,Overcast,240,2012-12-07 15:55:00
10:15 AM,34.3,19.0,54,29.85,10.0,SW,10.4,-,N/A,,Overcast,230,2012-12-07 16:15:00
10:35 AM,35.4,18.3,50,29.85,10.0,SW,11.5,-,N/A,,Overcast,230,2012-12-07 16:35:00
10:55 AM,36.1,18.9,50,29.85,10.0,WSW,10.4,-,N/A,,Overcast,240,2012-12-07 16:55:00
11:15 AM,37.4,19.4,48,29.85,10.0,West,12.7,-,N/A,,Overcast,260,2012-12-07 17:15:00
11:35 AM,38.8,23.4,54,29.85,10.0,WNW,12.7,18.4,N/A,,Overcast,300,2012-12-07 17:35:00
11:55 AM,40.1,23.5,52,29.84,10.0,NW,16.1,19.6,N/A,,Scattered Clouds,310,2012-12-07 17:55:00
12:15 PM,40.5,23.0,50,29.84,10.0,WNW,13.8,25.3,N/A,,Clear,300,2012-12-07 18:15:00
12:35 PM,41.2,22.6,48,29.83,10.0,NW,16.1,24.2,N/A,,Clear,310,2012-12-07 18:35:00
12:55 PM,40.6,22.1,48,29.84,10.0,NW,18.4,27.6,N/A,,Clear,310,2012-12-07 18:55:00
1:15 PM,39.4,23.2,52,29.84,10.0,NW,19.6,27.6,N/A,,Clear,320,2012-12-07 19:15:00
1:35 PM,38.7,23.7,55,29.85,10.0,NW,18.4,27.6,N/A,,Clear,320,2012-12-07 19:35:00
1:55 PM,37.9,23.7,57,29.85,10.0,NNW,23.0,29.9,N/A,,Clear,330,2012-12-07 19:55:00
2:15 PM,37.4,23.5,57,29.86,10.0,NW,20.7,29.9,N/A,,Clear,320,2012-12-07 20:15:00
2:35 PM,37.8,23.0,55,29.86,10.0,NNW,20.7,24.2,N/A,,Clear,330,2012-12-07 20:35:00
2:55 PM,36.0,23.0,59,29.87,10.0,NNW,16.1,-,N/A,,Clear,330,2012-12-07 20:55:00
3:15 PM,35.6,23.0,60,29.88,10.0,NNW,17.3,-,N/A,,Clear,330,2012-12-07 21:15:00
3:35 PM,35.1,23.0,61,29.89,10.0,NNW,19.6,25.3,N/A,,Scattered Clouds,330,2012-12-07 21:35:00
3:55 PM,34.7,22.8,62,29.90,10.0,NNW,16.1,19.6,N/A,,Clear,330,2012-12-07 21:55:00
4:15 PM,34.2,22.5,62,29.91,10.0,NNW,13.8,24.2,N/A,,Clear,330,2012-12-07 22:15:00
4:35 PM,33.4,22.5,64,29.92,10.0,NW,10.4,-,N/A,,Clear,310,2012-12-07 22:35:00
4:55 PM,32.5,22.1,65,29.92,10.0,NW,10.4,-,N/A,,Clear,320,2012-12-07 22:55:00
5:15 PM,32.0,22.1,67,29.93,10.0,NW,8.1,-,N/A,,Clear,310,2012-12-07 23:15:00
5:35 PM,31.6,22.1,68,29.93,10.0,NW,6.9,-,N/A,,Clear,310,2012-12-07 23:35:00
5:55 PM,30.2,21.6,70,29.93,10.0,NW,6.9,-,N/A,,Clear,320,2012-12-07 23:55:00
6:15 PM,30.0,21.7,71,29.93,10.0,NW,8.1,-,N/A,,Scattered Clouds,320,2012-12-08 00:15:00
6:35 PM,30.0,21.9,72,29.94,10.0,NNW,9.2,-,N/A,,Scattered Clouds,330,2012-12-08 00:35:00
6:55 PM,29.7,21.7,72,29.94,10.0,NNW,9.2,-,N/A,,Clear,330,2012-12-08 00:55:00
7:15 PM,28.8,21.4,74,29.95,10.0,NNW,4.6,-,N/A,,Clear,330,2012-12-08 01:15:00
7:35 PM,28.0,21.2,76,29.95,10.0,WNW,4.6,-,N/A,,Clear,290,2012-12-08 01:35:00
7:55 PM,27.3,21.2,78,29.95,10.0,NW,3.5,-,N/A,,Clear,320,2012-12-08 01:55:00
8:15 PM,25.5,20.3,81,29.95,10.0,NW,3.5,-,N/A,,Clear,320,2012-12-08 02:15:00
8:35 PM,24.8,20.3,83,29.95,10.0,Calm,Calm,-,N/A,,Clear,0,2012-12-08 02:35:00
8:55 PM,24.4,20.1,84,29.96,10.0,WNW,3.5,-,N/A,,Clear,290,2012-12-08 02:55:00
9:15 PM,22.5,18.9,86,29.97,10.0,West,4.6,-,N/A,,Clear,280,2012-12-08 03:15:00
9:35 PM,22.3,18.7,86,29.97,10.0,Calm,Calm,-,N/A,,Clear,0,2012-12-08 03:35:00
9:55 PM,21.2,18.3,89,29.97,10.0,SSW,4.6,-,N/A,,Clear,210,2012-12-08 03:55:00
10:15 PM,21.0,18.3,89,29.97,10.0,SW,5.8,-,N/A,,Clear,220,2012-12-08 04:15:00
10:35 PM,19.0,16.2,89,29.96,10.0,Calm,Calm,-,N/A,,Clear,0,2012-12-08 04:35:00
10:55 PM,18.0,16.0,92,29.96,10.0,NW,3.5,-,N/A,,Clear,320,2012-12-08 04:55:00
11:15 PM,18.0,16.0,92,29.96,10.0,West,3.5,-,N/A,,Clear,280,2012-12-08 05:15:00
11:35 PM,18.5,16.2,91,29.96,10.0,WSW,4.6,-,N/A,,Clear,250,2012-12-08 05:35:00
11:55 PM,17.6,14.9,89,29.96,10.0,West,4.6,-,N/A,,Clear,260,2012-12-08 05:55:00